Location: State Line Observation Field
(36.5320°N, 77.5360°W)
Time: 02:11:43
(UTC-05:00)

ISS - Visible Passes

Search period start: 04 March 2021 00:00
Search period end: 14 March 2021 00:00
Orbit: 417 x 422 km, 51.6° (Epoch: 04 March)

Date Brightness Start Highest point End Pass type
(mag) Time Alt. Az. Time Alt. Az. Time Alt. Az.
06 Mar -1.1 05:58:50 10° NNW 06:00:57 15° NNE 06:03:03 10° ENE visible
07 Mar -0.9 05:12:01 10° N 05:13:13 11° NNE 05:14:24 10° NE visible
08 Mar -2.2 05:59:58 10° NNW 06:03:03 33° NE 06:06:09 10° ESE visible
09 Mar -1.5 05:12:44 10° NNW 05:15:26 22° NNE 05:18:08 10° E visible
10 Mar -1.1 04:27:08 15° NNE 04:27:45 15° NNE 04:29:51 10° ENE visible
10 Mar -3.8 06:01:32 10° NW 06:04:53 76° SW 06:08:14 10° SE visible
11 Mar -3.2 05:14:52 16° NW 05:17:23 58° NE 05:20:42 10° ESE visible
12 Mar -2.2 04:29:47 33° NNE 04:29:49 33° NE 04:32:54 10° ESE visible
13 Mar -3.2 05:17:52 28° W 05:19:04 39° SW 05:22:13 10° SSE visible
